Simultaneous Nadir Overpasses (SNOs) Predictions

Prediction of SNOs between GOES-16 and AQUA Satellite Orbit:

Table of predicted SNOs for the next 14.0 days since TLE Epoch: 4/20/2018
Index Date Time (GOES-16) GOES-16 Lat,Lon AQUA Lat,Lon Distance(km) Time Diff (sec)
1 04/22/2018 06:30:21 -0.00, -75.21 -0.27, -73.90 148.08 80
2 04/22/2018 18:51:44 -0.00, -75.21 -0.85, -79.09 441.99 80
3 04/24/2018 06:18:08 -0.00, -75.23 -0.91, -70.94 486.75 80
4 04/24/2018 18:39:31 -0.00, -75.23 -0.21, -76.13 103.09 80
5 04/26/2018 18:29:58 -0.00, -75.26 0.43, -73.17 236.71 80
6 04/27/2018 06:51:14 0.00, -75.27 0.64, -78.33 348.08 80
7 04/29/2018 06:39:01 -0.00, -75.31 -0.01, -75.38 7.71 80
8 05/01/2018 06:24:08 -0.00, -75.35 -0.66, -72.42 333.87 80
9 05/01/2018 18:45:31 0.00, -75.35 -0.46, -77.60 255.69 80
10 05/03/2018 18:35:58 0.00, -75.40 0.19, -74.65 86.28 80
11 05/04/2018 06:57:13 0.00, -75.42 0.93, -79.80 497.80 80




NCC Satellite Simultaneous Nadir Overpasses (SNOs) Prediction Service
